Observer details:
213 Observatorio Montcabre.  Observer R. Naves.  Measurer M. Campas.  0.30-m
    f/5.5 Schmidt-Cassegrain + CCD.
349 Ageo.  Observer K. Kadota.  0.25-m f/5.0 reflector + CCD.
360 Kuma Kogen.  Observer A. Nakamura.  0.60-m f/5.8 Ritchey-Chretien + CCD.
367 Yatsuka.  Observer H. Abe.  0.26-m f/6 reflector + CCD.
372 Geisei.  Observer T. Seki.  0.60-m f/3.5 reflector.
422 Loomberah.  Observer G. J. Garradd.  0.45-m f/5.4 reflector + CCD.
428 Reedy Creek.  Observer J. Broughton.  0.51-m f/3.6 reflector + CCD.
442 Gualba Observatory.  Observer A. Sanchez.  0.31-m f/3.3 Schmidt-Cassegrain
    + CCD.
445 Observatori d'Ontinyent.  Observer M. Camarasa.  0.20-m f/7.2
    Schmidt-Cassegrain + CCD.
467 Auckland Observatory.  Observers G. W. Christie, T. Natusch.  0.35-m f/11
    Schmidt-Cassegrain + CCD.
619 Sabadell.  Observers R. Josa, M. Bella, L. Xifra.  0.50-m f/4 reflector
    + CCD.
673 Table Mountain Observatory, Wrightwood.  Observer J. Young.  0.6-m
    reflector + CCD.
939 Observatorio Rodeno.  Observer J. Castellano.  0.20-m f/10
    Schmidt-Cassegrain + CCD.
D70 Tosa.  Observer S. Shimomoto.  0.20-m f/6.3 Schmidt-Cassegrain + CCD.
H41 Petit Jean Mountain.  Observer P. C. Sherrod.  0.41-m f/3.7
    Schmidt-Cassegrain + CCD.
I30 Observatorio Geminis Austral.  Observer J. L. Sanchez.  Measurers
    J. L. Sanchez, L. Mansilla.  0.25-m f/4 reflector + CCD.
J76 La Murta.  Observer S. Pastor, J. A. Reyes.  0.40-m f/3.3
    Schmidt-Cassegrain + CCD.

Orbital elements:
    C/2001 Q4 (NEAT)
Epoch 2004 June 4.0 TT = JDT 2453160.5
T 2004 May 15.96724 TT                                  MPC
q   0.9619560            (2000.0)            P               Q
z  -0.0007701      Peri.    1.20672     -0.86517203     -0.06624920
 +/-0.0000006      Node   210.27848     -0.46795872     -0.24964212
e   1.0007408      Incl.   99.64258     -0.18025536     +0.96606928
From 596 observations 2001 Aug. 24-2004 May 10, mean residual 0".85.

